Regional Weather Roundup
Issued by NWS Grand Forks, ND

Home | Current Version | Previous Version | Graphics & Text | Print | Product List | Glossary On
Versions: 1 2 3 4 5 6 7 8 9 10 11 12 13 14 15 16 17 18 19 20 21 22 23 24 25 26 27 28 29 30 31 32 33 34 35 36 37 38 39 40 41 42 43 44 45 46 47 48 49 50
000
ASUS43 KFGF 010810
RWRFGF
PRAIRIE TO PINES  WEATHER ROUNDUP
NATIONAL WEATHER SERVICE EASTERN NORTH DAKOTA/GRAND FORKS ND
300 AM CDT WED JUN 01 2016

 **SATELLITE DATA USED TO AUGMENT SKY COVER AT AUTOMATED STATIONS**
 *****  WEATHER ACROSS EASTERN NORTH DAKOTA  *****

CITY           SKY/WX    TMP DP  RH WIND       PRES   REMARKS
GRAND FORKS    RAIN      52  50  93 W12       29.60S
GRAND FRKS AFB LGT RAIN  52  51  97 W9        29.62S
DEVILS LAKE    CLOUDY    52  51  97 NW16      29.68R
FARGO          PTCLDY    55  51  86 SW15      29.66S
WAHPETON ARPT  CLOUDY    55  48  76 W22       29.73R
$$

 ***** WEATHER ACROSS CENTRAL AND WESTERN NORTH DAKOTA  *****

CITY           SKY/WX    TMP DP  RH WIND       PRES   REMARKS
BISMARCK       CLOUDY    50  46  86 NW14G24   29.87R
MINOT          CLOUDY    50  45  83 NW22G31   29.85S
JAMESTOWN      CLOUDY    53  50  89 NW20G29   29.71S
MINOT AFB      CLOUDY    47  45  92 NW23G29   29.83S
GARRISON         N/A     48  44  86 NW22      29.87R
WILLISTON      CLOUDY    46  41  82 NW15      29.99R
DICKINSON      CLOUDY    47  45  93 NW15      29.94S
HETTINGER      MOCLDY    49  46  90 W16       29.98S
$$

 *****  OTHER AIRPORT OBSERVATIONS IN OUR AREA  *****

CITY           SKY/WX    TMP DP  RH WIND       PRES   REMARKS
WALHALLA       FAIR      54  50  87 NW7       29.64S
GRAFTON AIRPOR DRIZZLE   54  54 100 NW8       29.63R
VALLEY CITY AR PTSUNNY   52  52 100 W13G21    29.71S
CANDO          NOT AVBL
CAVALIER APRT  CLOUDY    55  55 100 NE8       29.63R
GWINNER        PTSUNNY   54  50  87 W15G22    29.74S
SHEYENNE NWR     N/A     54  51  90 W12       29.95S
ROLLA          CLOUDY    46  46 100 N22G31    29.74R FOG
 ***** THE ABOVE OBSERVATIONS ARE NON NWS ARE NOT QUALITY
       CONTROLLED AND MAY MIS-REPORT RAIN FOR SNOW...
$$

  *****  WEATHER ACROSS NORTHERN MINNESOTA  *****

CITY           SKY/WX    TMP DP  RH WIND       PRES   REMARKS
FLAG ISLAND    RAIN      55  54  94 E8        29.67F
WARROAD        LGT RAIN  55  52  88 E13       29.65F
ROSEAU         LGT RAIN  55  52  88 E12       29.63S
HALLOCK        DRIZZLE   55  54  94 N10       29.59F
THF RVR FALLS  CLOUDY    52  48  87 SW14      29.62R
BAUDETTE       CLOUDY    55  52  89 E13       29.66F
WASKISH        CLOUDY    54  52  94 E9        29.65F
CROOKSTON      MOCLDY    52  52 100 SW13      29.62S
$$
  *****  WEATHER ACROSS CENTRAL AND WEST MINNESOTA  *****

CITY           SKY/WX    TMP DP  RH WIND       PRES   REMARKS
FOSSTON        PTCLDY    54  52  94 SW10G16   29.65R
BEMIDJI        CLOUDY    55  52  92 S5        29.65F
PARK RAPIDS    CLOUDY    56  50  80 SW20G28   29.68S
ELBOW LAKE     FAIR      53  49  89 SW13      29.75F
WADENA         MOCLDY    55  48  76 SW13G21   29.72S
DETROIT LAKES  PTCLDY    54  50  87 SW13      29.70R
MOORHEAD       PTCLDY    54  52  94 SW13      29.68S
FERGUS FALLS   CLOUDY    55  52  88 SW13      29.71R
MORRIS MN      MOCLDY    55  48  76 SW12      29.77S
STAPLES        PTCLDY    55  46  71 SW12G17   29.73F
$$
  *****  WEATHER ELSEWHERE ACROSS MINNESOTA  *****

CITY           SKY/WX    TMP DP  RH WIND       PRES   REMARKS
DULUTH         FOG       42  41  96 SE10      29.79F VSB 1/4
INTRNTL FALLS  CLOUDY    53  51  93 SE9       29.71F
ELY            CLOUDY    50  48  93 S5        29.80S FOG
CLOQUET        FOG       43  43 100 E5        29.78F VSB 1/4
WHEATON        CLOUDY    59  52  77 SW18G28   29.78R
BRAINERD       CLEAR     57  46  66 SW14G23   29.74F
HIBBING        FOG       48  48 100 SE6       29.76F VSB 1/2
ALEXANDRIA     PTCLDY    55  48  77 SW14      29.77F
SAINT CLOUD    CLEAR     59  47  64 SW12      29.78F
MINNEAPOLIS    CLEAR     64  51  62 SW10      29.83R
$$

  *****  WEATHER ACROSS SOUTH DAKOTA  *****

CITY           SKY/WX    TMP DP  RH WIND       PRES   REMARKS
SIOUX FALLS    CLEAR     57  48  72 W10       29.94S
BROOKINGS      CLEAR     54  46  74 W15       29.89
WATERTOWN      CLOUDY    54  46  74 W18G26    29.85R
HURON          CLEAR     53  47  79 W20       29.91S
SISSETON         N/A     54  50  86 W18G24    29.76S
ABERDEEN       PTCLDY    54  46  74 W18G25    29.83R
MITCHELL       CLEAR     56  49  77 W14       29.96R
PIERRE         CLEAR     51  45  79 W14       29.96S
MOBRIDGE       PTCLDY    53  45  74 NW14G23   29.88S
RAPID CITY     CLEAR     44  38  79 W6        30.09S
$$

  *****  SOME WEATHER IN NEARBY STATES *****

CITY           SKY/WX    TMP DP  RH WIND       PRES   REMARKS
GLASGOW MT     PTCLDY    49  45  86 NW8       30.04F
GREAT FALLS MT CLEAR     43  35  73 SW9       30.09F
CHEYENNE WY    CLOUDY    44  36  73 N7        30.22S
SCOTTSBLUFF NE PTCLDY    46  38  73 N3        30.18R
OMAHA NE       CLEAR     61  51  70 N9        29.97R
DES MOINES IA  CLOUDY    62  60  93 S3        29.93R FOG
DAVENPORT IA   CLOUDY    64  62  93 S6        29.93S
CHICAGO IL     LGT RAIN  64  62  93 SE7       29.95F
EAU CLAIRE WI  CLOUDY    62  60  93 S7        29.85F
LA CROSSE WI   CLOUDY    65  62  90 S7        29.88F
$$

  *****  SOME NATIONAL WEATHER *****

CITY           SKY/WX    TMP DP  RH WIND       PRES   REMARKS
LA GUARDIA NY  PTCLDY    74  62  67 NE3       30.01R
RALEIGH NC     CLOUDY    68  67  96 CALM      29.99S
ATLANTA GA     PTCLDY    72  63  73 E8        29.97R
NEW ORLEANS LA PTCLDY    74  69  85 SE3       29.92F
OKLAHOMA CITY  LGT RAIN  67  66  97 W6        29.95R
ALBUQUERQUE NM CLOUDY    61  41  47 E20G25    30.08R
SALT LAKE CITY CLEAR     61  35  37 S5        30.05S
LOS ANGELES CA CLOUDY    63  57  81 SE6       29.90R
BOISE ID       CLEAR     58  34  40 E6        29.99F
SEATTLE WA     MOCLDY    63  48  58 N7        29.96F
$$

*** WEATHER ACROSS MANITOBA...SASKATCHEWAN AND ONTARIO ***
                ***ONTARIO***

CITY           SKY/WX    TMP DP  RH WIND       PRES   REMARKS
GERALDTON      CLOUDY    48  41  76 E14G21    29.99F
THUNDER BAY    LGT RAIN  48  46  93 E8        29.88F FOG
SIOUX LOOKOUT  LGT RAIN  48  46  93 E6        29.81F
TORONTO        MOCLDY    57  43  58 E10G17    30.13R
BIG TROUT LK   CLOUDY    43  34  70 E7        30.10F
PICKLE LAKE    NOT AVBL
DRYDEN         CLOUDY    46  46 100 E7        29.78F
KENORA         DRIZZLE   50  50 100 E13       29.72F FOG
$$
                *** MANITOBA***

CITY           SKY/WX    TMP DP  RH WIND       PRES   REMARKS
BRANDON        CLOUDY    48  45  87 N15       29.79S
DAUPHIN        CLOUDY    46  45  93 N13       29.86S
ISLAND LAKE    NOT AVBL
PILOT MOUND      N/A     50  50 100 N15G21      N/A
THE PAS        PTCLDY    43  37  81 VRB2      29.99F
THOMPSON       CLOUDY    39  32  75 NE5       30.06F
WINNIPEG       CLOUDY    54  54 100 NE10      29.69S
LYNN LAKE      CLOUDY    48  37  66 S8        30.02S
CHURCHILL      MOCLDY    28  27  93 SE12      30.23S WCI  18
GILLAM         MOCLDY    37  34  87 E6        30.13F
$$
                ***SASKATCHEWAN***

CITY           SKY/WX    TMP DP  RH WIND       PRES   REMARKS
ESTEVAN        CLOUDY    45  41  87 NW15G21   29.95S
KINDERSLEY     CLEAR     45  43  93 S3        30.03F
LLOYDMINSTER   CLEAR     48  45  87 SW8       30.01F
PRINCE ALBERT  PTCLDY    41  39  93 W7        30.00F
REGINA         CLEAR     45  45 100 NW6       30.01F
YORKTON        CLOUDY    46  41  81 NW8       29.94F
N. BATTLEFORD  CLEAR     45  45 100 CALM      30.04F
LA RONGE       PTCLDY    43  41  93 CALM      30.00F
SASKATOON      PTCLDY    45  45 100 NW2       30.03F
SWIFT CURRENT  CLEAR     46  46 100 W9        30.03F
$$
NOTE: THESE ARE AUTOMATED STATIONS WITH LIMITED QUALITY CONTROL
      "FAIR" INDICATES FEW OR NO CLOUDS BELOW 12,000 FEET WITH NO
      SIGNIFICANT WEATHER AND/OR OBSTRUCTIONS TO VISIBILITY.
      SKY/WX - SKY CONDITION AND SIGNIFICANT WEATHER.
      TMP - AIR TEMPERATURE.    DP   - DEWPOINT TEMPERATURE.
      RH  - RELATIVE HUMIDITY.  PRES - PRESSURE.
      HX  - HEAT INDEX.         WCI  - WIND CHILL INDEX.
$



USA.gov is the U.S. government's official web portal to all federal, state and local government web resources and services.